Weather in Tula de Allende

Mexico     20°03′11″N   99°20′37″W
temp.,
°C
wind,
m/s
gust,
m/s
humid.,
%
clouds,
%
prec.,
mm/h
press.,
hPa
HPBL,
m
9 december, thu
thu900:00+13wsw11575 0.0 101910
03:00+11ssw116177 0.0 101810
06:00+10ssw116768 0.0 101910
09:00+15sw115016 0.0 1020219
12:00+21n22290 0.0 10171592
15:00+23nne42212 0.0 10132470
18:00+18nne33315 0.0 101534
21:00+14nw005135 0.0 101811
10 december, fri
fri1000:00+12sw115339 0.0 101910
03:00+11sw115732 0.0 101810
06:00+10ssw116172 0.0 101910
09:00+15sw114673 0.0 1020211
12:00+21ene012914 0.0 10161457
15:00+23ne2224100 0.0 10112307
18:00+18nne4631100 0.0 101382
21:00+14w113598 0.0 101711
11 december, sat
sat1100:00+13ssw2240100 0.0 101810
03:00+11ssw114270 0.0 101710
06:00+10ssw11446 0.0 101710
09:00+15sw113258 0.0 1018191
12:00+21nne222366 0.0 10151587
15:00+23nne4321100 0.0 10112508
18:00+17nne5845100 0.0 1014200
21:00+12n228359 0.0 101927
12 december, sun
sun1200:00+11nne229696 0.0 102117
03:00+9ene119580 0.1 102110
06:00+8ene009584 0.1 102210
09:00+12sse117583 0.0 1023353
12:00+18ene224274 0.0 10191150
15:00+21nne22305 0.0 10141974
18:00+16n586144 0.0 1017171
21:00+11n229162 0.0 102220
13 december, mon
mon1300:00+10n229360 0.0 102364
03:00+11nne118176 0.0 1022379
06:00+11ese007959 0.0 1022151
09:00+13e117280 0.0 1023420
12:00+19ne334343 0.0 10201304
15:00+21nne553655 0.0 10162207
18:00+16nne686258 0.0 1018496
21:00+11n23915 0.0 102355